Regional Weather Roundup
Issued by NWS

Home | Current Version | Previous Version | Text Only | Print | Product List | Glossary Off
Versions: 1 2 3 4 5 6 7 8 9 10 11 12 13 14 15 16 17 18 19 20 21 22 23 24 25 26 27 28 29 30 31 32 33 34 35 36 37 38 39 40 41 42 43 44 45 46 47 48 49 50

000
ASUS43 KLMK 250002
RWRKY
KENTUCKY REGIONAL WEATHER ROUNDUP
NATIONAL WEATHER SERVICE LOUISVILLE KY
800 PM EDT MON JUL 24 2017

NOTE "FAIR" INDICATES FEW OR NO CLOUDS BELOW 12,000 FEET
WITH NO SIGNIFICANT WEATHER AND/OR OBSTRUCTIONS TO VISIBILITY.

KYZ001>023-026-027-061>063-070>075-250100-
WESTERN AND SOUTH CENTRAL KENTUCKY

CITY           SKY/WX    TMP DP  RH WIND       PRES   REMARKS
PADUCAH        CLOUDY    81  75  82 CALM      29.92R
HENDERSON      SUNNY     85  72  65 N7        29.96R HX  91
OWENSBORO      MOSUNNY   87  69  54 N8        29.95R THUNDER HX  91
HOPKINSVILLE   MOSUNNY   87  73  62 SW3       29.95R HX  94
BOWLING GREEN  CLOUDY    89  71  55 W5        29.95R HX  95
GLASGOW        NOT AVBL
$$

KYZ024-025-028>034-038-045-046-053-250100-
NORTH CENTRAL KENTUCKY

CITY           SKY/WX    TMP DP  RH WIND       PRES   REMARKS
LOUISVILLE/SDF CLOUDY    86  65  49 NE10      29.95R
LOUISVILLE/LOU PTCLDY    86  66  51 NE9       29.96R
FORT KNOX      MOSUNNY   83  73  73 N5        29.95R
$$

KYZ035>037-039>044-047>052-055>060-089>105-250100-
NORTHEAST KENTUCKY

CITY           SKY/WX    TMP DP  RH WIND       PRES   REMARKS
LEXINGTON      CLOUDY    80  73  79 CALM      29.98R
COVINGTON      PTCLDY    80  68  66 N8        29.99R
FRANKFORT      CLOUDY    85  64  49 N3        29.97R
$$

KYZ054-064>069-076>088-106>120-250100-
SOUTHEAST KENTUCKY

CITY           SKY/WX    TMP DP  RH WIND       PRES   REMARKS
JACKSON        CLOUDY    73  71  93 CALM      30.02R FOG
LONDON         CLOUDY    79  67  66 N6        30.01R
SOMERSET       CLOUDY    82  64  54 W5        30.00R
MIDDLESBORO    PTCLDY    82  71  69 SW3       30.00R
MONTICELLO     PTCLDY    79  75  87 W3        30.00
$$





USA.gov is the U.S. government's official web portal to all federal, state and local government web resources and services.